TimeEST,TemperatureF,Dew PointF,Humidity,Sea Level PressureIn,VisibilityMPH,Wind Direction,Wind SpeedMPH,Gust SpeedMPH,PrecipitationIn,Events,Conditions,WindDirDegrees,DateUTC
12:24 AM,30.2,28.4,93,29.74,2.0,WSW,8.1,-,0.00,Snow,Light Snow,250,2012-12-22 05:24:00
12:26 AM,30.2,28.4,93,29.74,1.8,Variable,5.8,-,0.00,Snow,Light Snow,0,2012-12-22 05:26:00
12:36 AM,30.2,28.4,93,29.74,1.5,SW,5.8,-,0.00,Snow,Light Snow,230,2012-12-22 05:36:00
12:53 AM,30.0,28.0,92,29.78,1.5,WSW,5.8,-,0.00,Snow,Light Snow,250,2012-12-22 05:53:00
1:01 AM,30.2,28.4,93,29.75,2.5,West,9.2,-,0.00,Snow,Light Snow,270,2012-12-22 06:01:00
1:22 AM,30.2,28.4,93,29.76,2.5,WSW,8.1,25.3,0.00,Snow,Light Snow,250,2012-12-22 06:22:00
1:43 AM,30.2,26.6,86,29.77,3.0,West,10.4,20.7,0.00,Snow,Light Snow,280,2012-12-22 06:43:00
1:53 AM,30.9,27.0,85,29.81,3.0,WNW,11.5,20.7,0.00,Snow,Light Snow,290,2012-12-22 06:53:00
2:02 AM,30.2,26.6,86,29.78,2.0,West,9.2,-,0.00,Snow,Light Snow,280,2012-12-22 07:02:00
2:16 AM,30.2,26.6,86,29.78,8.0,West,9.2,-,0.00,Snow,Light Snow,280,2012-12-22 07:16:00
2:53 AM,30.9,27.0,85,29.84,6.0,West,9.2,21.9,0.00,,Overcast,280,2012-12-22 07:53:00
3:12 AM,30.2,26.6,86,29.81,1.8,West,11.5,20.7,0.00,Snow,Light Snow,280,2012-12-22 08:12:00
3:26 AM,30.2,26.6,86,29.83,3.0,WNW,8.1,20.7,0.00,Snow,Light Snow,300,2012-12-22 08:26:00
4:25 AM,30.2,23.0,75,29.85,9.0,West,11.5,18.4,N/A,,Overcast,280,2012-12-22 09:25:00
4:53 AM,30.9,23.0,72,29.90,10.0,WNW,8.1,23.0,0.00,,Overcast,300,2012-12-22 09:53:00
5:42 AM,30.2,23.0,75,29.89,10.0,WNW,8.1,-,N/A,,Overcast,300,2012-12-22 10:42:00
5:51 AM,30.2,21.2,69,29.90,9.0,WNW,11.5,23.0,N/A,,Overcast,300,2012-12-22 10:51:00
5:53 AM,30.9,21.9,69,29.94,9.0,WNW,9.2,23.0,N/A,,Overcast,300,2012-12-22 10:53:00
6:46 AM,30.2,21.2,69,29.94,10.0,Variable,6.9,-,N/A,,Overcast,0,2012-12-22 11:46:00
6:53 AM,30.9,21.0,67,29.98,10.0,WNW,12.7,21.9,N/A,,Overcast,300,2012-12-22 11:53:00
7:53 AM,30.9,19.9,64,30.01,10.0,West,11.5,17.3,N/A,,Overcast,270,2012-12-22 12:53:00
8:53 AM,30.9,19.0,61,30.04,10.0,West,11.5,20.7,N/A,,Overcast,260,2012-12-22 13:53:00
9:53 AM,32.0,19.0,59,30.08,10.0,West,15.0,-,0.00,Snow,Light Snow,260,2012-12-22 14:53:00
10:53 AM,30.9,21.0,67,30.09,9.0,WSW,12.7,-,0.00,Snow,Light Snow,240,2012-12-22 15:53:00
11:23 AM,30.2,24.8,80,30.05,2.5,WSW,6.9,-,0.00,Snow,Light Snow,240,2012-12-22 16:23:00
11:34 AM,30.2,24.8,80,30.06,1.5,SW,9.2,17.3,0.01,Snow,Light Snow,230,2012-12-22 16:34:00
11:44 AM,30.2,24.8,80,30.05,2.0,SW,6.9,-,0.01,Snow,Light Snow,230,2012-12-22 16:44:00
11:53 AM,30.0,24.1,79,30.09,3.0,WSW,6.9,-,0.01,Snow,Light Snow,240,2012-12-22 16:53:00
12:10 PM,30.2,24.8,80,30.05,2.5,WSW,9.2,17.3,0.00,Snow,Light Snow,240,2012-12-22 17:10:00
12:19 PM,30.2,24.8,80,30.05,1.2,Variable,4.6,18.4,0.00,Snow,Light Snow,0,2012-12-22 17:19:00
12:53 PM,30.0,26.1,85,30.09,1.8,WSW,11.5,20.7,0.01,Snow,Light Snow,250,2012-12-22 17:53:00
1:07 PM,30.2,24.8,80,30.04,2.0,SW,8.1,-,0.00,Snow,Light Snow,220,2012-12-22 18:07:00
1:22 PM,30.2,24.8,80,30.04,3.0,SW,9.2,-,0.01,Snow,Light Snow,230,2012-12-22 18:22:00
1:53 PM,30.0,24.1,79,30.08,8.0,Variable,6.9,-,0.01,Snow,Light Snow,0,2012-12-22 18:53:00
2:53 PM,30.0,24.1,79,30.10,5.0,SW,8.1,-,0.00,Snow,Light Snow,230,2012-12-22 19:53:00
3:53 PM,30.0,21.9,72,30.11,10.0,SW,6.9,-,0.00,,Overcast,230,2012-12-22 20:53:00
4:53 PM,30.0,21.9,72,30.13,10.0,Variable,5.8,-,N/A,,Overcast,0,2012-12-22 21:53:00
5:53 PM,30.0,21.0,69,30.14,10.0,Variable,3.5,-,N/A,,Overcast,0,2012-12-22 22:53:00
6:53 PM,28.9,19.9,69,30.14,10.0,WSW,5.8,-,N/A,,Overcast,250,2012-12-22 23:53:00
7:53 PM,28.9,19.9,69,30.14,10.0,SW,8.1,-,N/A,,Overcast,230,2012-12-23 00:53:00
8:53 PM,28.9,19.9,69,30.15,10.0,Variable,4.6,-,N/A,,Overcast,0,2012-12-23 01:53:00
9:53 PM,28.0,19.0,69,30.15,10.0,SW,9.2,-,N/A,,Overcast,230,2012-12-23 02:53:00
10:26 PM,26.6,19.4,74,30.11,10.0,SW,5.8,-,N/A,,Scattered Clouds,220,2012-12-23 03:26:00
10:53 PM,27.0,19.0,72,30.15,10.0,SSW,5.8,-,N/A,,Clear,210,2012-12-23 03:53:00
11:53 PM,26.1,19.0,75,30.14,10.0,SSW,4.6,-,N/A,,Clear,200,2012-12-23 04:53:00